Location: Boss Branch
(32.3799°N, 97.2508°W)
Time: 20:39:49
(UTC+00:00)

deb Explorer IX - Pass Details

Date: 16 November 2024
Orbit: 488 x 740 km, 38.7° (Epoch: 13 December)

Event Time Altitude Azimuth Distance (km) Brightness Sun altitude
Rises 01:47:13 0° 284° (WNW) 3,048 ? -29.3°
Reaches altitude 10° 01:49:39 10° 291° (WNW) 2,180 ? -29.8°
Enters shadow 01:53:07 34° 325° (NW) 1,193 ? -30.6°
